TimeMST,TemperatureF,Dew PointF,Humidity,Sea Level PressureIn,VisibilityMPH,Wind Direction,Wind SpeedMPH,Gust SpeedMPH,PrecipitationIn,Events,Conditions,WindDirDegrees,DateUTC
12:15 AM,55.4,26.6,33,30.30,10.0,NE,8.1,-,N/A,,Clear,40,2012-12-05 07:15:00
12:55 AM,55.4,24.8,31,30.29,10.0,NE,12.7,-,N/A,,Clear,40,2012-12-05 07:55:00
1:15 AM,55.4,23.0,29,30.29,10.0,NE,12.7,-,N/A,,Clear,40,2012-12-05 08:15:00
1:35 AM,55.4,23.0,29,30.28,10.0,NE,12.7,17.3,N/A,,Clear,40,2012-12-05 08:35:00
1:55 AM,53.6,23.0,30,30.29,10.0,NE,11.5,-,N/A,,Clear,40,2012-12-05 08:55:00
2:15 AM,53.6,23.0,30,30.28,10.0,NE,11.5,-,N/A,,Clear,40,2012-12-05 09:15:00
2:35 AM,53.6,23.0,30,30.28,10.0,NE,10.4,-,N/A,,Clear,40,2012-12-05 09:35:00
2:55 AM,53.6,23.0,30,30.28,10.0,NE,12.7,-,N/A,,Clear,40,2012-12-05 09:55:00
3:15 AM,53.6,23.0,30,30.28,10.0,NE,9.2,-,N/A,,Clear,40,2012-12-05 10:15:00
3:35 AM,53.6,23.0,30,30.28,10.0,NE,9.2,-,N/A,,Clear,40,2012-12-05 10:35:00
3:55 AM,51.8,23.0,33,30.27,10.0,NE,9.2,-,N/A,,Clear,40,2012-12-05 10:55:00
4:15 AM,51.8,23.0,33,30.27,10.0,NE,8.1,-,N/A,,Clear,40,2012-12-05 11:15:00
4:35 AM,51.8,23.0,33,30.26,10.0,NNE,6.9,-,N/A,,Clear,30,2012-12-05 11:35:00
4:55 AM,51.8,23.0,33,30.25,10.0,NE,8.1,-,N/A,,Clear,40,2012-12-05 11:55:00
5:15 AM,51.8,23.0,33,30.25,10.0,NNE,9.2,-,N/A,,Clear,30,2012-12-05 12:15:00
5:35 AM,51.8,23.0,33,30.25,10.0,NE,11.5,-,N/A,,Clear,40,2012-12-05 12:35:00
5:55 AM,51.8,23.0,33,30.25,10.0,NE,13.8,-,N/A,,Clear,40,2012-12-05 12:55:00
7:35 AM,51.8,23.0,33,30.25,10.0,ENE,6.9,-,N/A,,Clear,60,2012-12-05 14:35:00
7:55 AM,51.8,23.0,33,30.25,10.0,NE,6.9,-,N/A,,Clear,50,2012-12-05 14:55:00
8:15 AM,51.8,24.8,35,30.25,10.0,NE,6.9,-,N/A,,Clear,50,2012-12-05 15:15:00
8:35 AM,53.6,24.8,33,30.25,10.0,NE,5.8,-,N/A,,Clear,50,2012-12-05 15:35:00
8:55 AM,53.6,24.8,33,30.25,10.0,NE,5.8,-,N/A,,Clear,40,2012-12-05 15:55:00
9:15 AM,55.4,26.6,33,30.25,10.0,ENE,3.5,-,N/A,,Clear,60,2012-12-05 16:15:00
9:35 AM,55.4,26.6,33,30.26,10.0,Calm,Calm,-,N/A,,Clear,0,2012-12-05 16:35:00
9:55 AM,59.0,28.4,31,30.26,10.0,Calm,Calm,-,N/A,,Clear,0,2012-12-05 16:55:00
10:15 AM,59.0,26.6,29,30.26,10.0,Calm,Calm,-,N/A,,Clear,0,2012-12-05 17:15:00
10:35 AM,60.8,26.6,27,30.26,10.0,Calm,Calm,-,N/A,,Clear,0,2012-12-05 17:35:00
10:55 AM,62.6,26.6,26,30.25,10.0,SE,3.5,-,N/A,,Clear,130,2012-12-05 17:55:00
11:15 AM,64.4,26.6,24,30.24,10.0,South,4.6,-,N/A,,Clear,170,2012-12-05 18:15:00
11:35 AM,64.4,26.6,24,30.22,10.0,SSE,4.6,-,N/A,,Clear,160,2012-12-05 18:35:00
11:55 AM,66.2,26.6,23,30.21,10.0,South,4.6,-,N/A,,Clear,180,2012-12-05 18:55:00
12:15 PM,68.0,26.6,21,30.20,10.0,SSE,4.6,-,N/A,,Clear,160,2012-12-05 19:15:00
12:35 PM,68.0,26.6,21,30.19,10.0,SW,4.6,-,N/A,,Clear,220,2012-12-05 19:35:00
12:55 PM,68.0,26.6,21,30.18,10.0,South,4.6,-,N/A,,Clear,170,2012-12-05 19:55:00
1:15 PM,69.8,26.6,20,30.17,10.0,SSE,4.6,-,N/A,,Clear,150,2012-12-05 20:15:00
1:35 PM,71.6,26.6,19,30.16,10.0,SSE,4.6,-,N/A,,Clear,160,2012-12-05 20:35:00
1:55 PM,69.8,24.8,18,30.15,10.0,South,4.6,-,N/A,,Clear,180,2012-12-05 20:55:00
2:15 PM,69.8,26.6,20,30.14,10.0,South,4.6,-,N/A,,Clear,180,2012-12-05 21:15:00
2:35 PM,71.6,26.6,19,30.13,10.0,SE,3.5,-,N/A,,Clear,140,2012-12-05 21:35:00
2:55 PM,69.8,26.6,20,30.12,10.0,South,3.5,-,N/A,,Clear,190,2012-12-05 21:55:00
3:15 PM,71.6,26.6,19,30.11,10.0,SSE,6.9,-,N/A,,Clear,160,2012-12-05 22:15:00
3:35 PM,71.6,26.6,19,30.11,10.0,SW,3.5,-,N/A,,Clear,230,2012-12-05 22:35:00
3:55 PM,69.8,26.6,20,30.11,10.0,Calm,Calm,-,N/A,,Clear,0,2012-12-05 22:55:00
4:15 PM,71.6,26.6,19,30.11,10.0,SW,3.5,-,N/A,,Clear,220,2012-12-05 23:15:00
4:35 PM,68.0,26.6,21,30.10,10.0,SSW,3.5,-,N/A,,Clear,210,2012-12-05 23:35:00
4:55 PM,66.2,26.6,23,30.10,10.0,Calm,Calm,-,N/A,,Clear,0,2012-12-05 23:55:00
5:15 PM,64.4,26.6,24,30.10,10.0,SW,3.5,-,N/A,,Clear,230,2012-12-06 00:15:00
5:35 PM,64.4,28.4,26,30.11,10.0,SW,3.5,-,N/A,,Clear,230,2012-12-06 00:35:00
5:55 PM,62.6,26.6,26,30.11,10.0,Calm,Calm,-,N/A,,Clear,0,2012-12-06 00:55:00
6:15 PM,62.6,26.6,26,30.10,10.0,Calm,Calm,-,N/A,,Clear,0,2012-12-06 01:15:00
6:35 PM,62.6,26.6,26,30.10,10.0,SSE,3.5,-,N/A,,Clear,150,2012-12-06 01:35:00
6:55 PM,62.6,26.6,26,30.10,10.0,Calm,Calm,-,N/A,,Clear,0,2012-12-06 01:55:00
7:15 PM,60.8,26.6,27,30.10,10.0,SE,3.5,-,N/A,,Clear,140,2012-12-06 02:15:00
7:35 PM,62.6,26.6,26,30.10,10.0,South,4.6,-,N/A,,Clear,180,2012-12-06 02:35:00
7:55 PM,60.8,26.6,27,30.10,10.0,Calm,Calm,-,N/A,,Clear,0,2012-12-06 02:55:00
8:15 PM,60.8,26.6,27,30.10,10.0,WSW,3.5,-,N/A,,Clear,240,2012-12-06 03:15:00
8:35 PM,60.8,26.6,27,30.10,10.0,WSW,3.5,-,N/A,,Clear,250,2012-12-06 03:35:00
8:55 PM,60.8,26.6,27,30.10,10.0,Calm,Calm,-,N/A,,Clear,0,2012-12-06 03:55:00
9:15 PM,60.8,26.6,27,30.10,10.0,Calm,Calm,-,N/A,,Clear,0,2012-12-06 04:15:00
9:35 PM,60.8,26.6,27,30.10,10.0,Calm,Calm,-,N/A,,Clear,0,2012-12-06 04:35:00
9:55 PM,59.0,26.6,29,30.09,10.0,Calm,Calm,-,N/A,,Clear,0,2012-12-06 04:55:00
10:15 PM,59.0,26.6,29,30.09,10.0,Calm,Calm,-,N/A,,Clear,0,2012-12-06 05:15:00
10:35 PM,59.0,26.6,29,30.09,10.0,Calm,Calm,-,N/A,,Clear,0,2012-12-06 05:35:00
10:55 PM,57.2,26.6,31,30.09,10.0,Calm,Calm,-,N/A,,Clear,0,2012-12-06 05:55:00
11:15 PM,57.2,26.6,31,30.09,10.0,Calm,Calm,-,N/A,,Clear,0,2012-12-06 06:15:00
11:35 PM,55.4,26.6,33,30.09,10.0,Calm,Calm,-,N/A,,Clear,0,2012-12-06 06:35:00
11:55 PM,53.6,26.6,35,30.09,10.0,North,3.5,-,N/A,,Clear,10,2012-12-06 06:55:00